Worland, WY

7:16 PM MDT on August 22, 2017 (GMT -0600)
Worland Municipal

Weather History for KWRL - February, 2013

Change the Weather History Date:

Monday, February 18, 2013

  Actual Average Record
Temperature  
Mean Temperature 22 °F 25 °F  
Max Temperature 34 °F 39 °F 62 °F (2016)
Min Temperature 9 °F 11 °F -23 °F (1906)
Degree Days  
Heating Degree Days 43 40  
Month to date heating degree days 809 779  
Since 1 July heating degree days 5135 5627  
Cooling Degree Days 0 0  
Month to date cooling degree days 0 0  
Year to date cooling degree days 0 0  
Moisture  
Dew Point 16 °F    
Average Humidity 75    
Maximum Humidity 100    
Minimum Humidity 49    
Precipitation  
Precipitation T in 0.00 in 0.13 in (1980)
Month to date precipitation 0.19 0.11  
Year to date precipitation 0.32 0.34  
Sea Level Pressure  
Sea Level Pressure 30.13 in    
Wind  
Wind Speed 5 mph (South)    
Max Wind Speed 14 mph    
Max Gust Speed 24 mph    
Visibility 9 miles    
Events Snow    
T = Trace of Precipitation, MM = Missing Value Source: NWS Daily Summary

Daily Weather History Graph

Daily Weather History Graph

Search for Another Location

Airport or City:

Trip Planner

Search our weather history database for the weather conditions in past years. The results will help you decide how hot, cold, wet, or windy it might be!

Date:

Astronomy

Feb. 18, 2013 Rise Set
Actual Time 7:05 AM MST 5:46 PM MST
Civil Twilight 6:36 AM MST 6:15 PM MST
Nautical Twilight 6:02 AM MST 6:49 PM MST
Astronomical Twilight 5:29 AM MST 7:22 PM MST
Moon 11:28 AM MST (2/18) 1:54 AM MST (2/18)
Length of Visible Light 11h 39m
Length of Day
10h 40m
First Quarter, 59% of the Moon is Illuminated
Feb 18
First Quarter
Feb 25
Full
Mar 4
Last Quarter
Mar 11
New
Mar 19
First Quarter

Hourly Weather History & Observations

Time (MST) Temp. Windchill Dew Point Humidity Pressure Visibility Wind Dir Wind Speed Gust Speed Precip Events Conditions
12:53 AM 17.1 °F 5.8 °F 14.0 °F 88% 30.05 in 10.0 mi West 9.2 mph - N/A   Clear
1:53 AM 16.0 °F 5.3 °F 12.9 °F 88% 30.06 in 10.0 mi WSW 8.1 mph - N/A   Partly Cloudy
2:53 AM 17.1 °F 7.6 °F 14.0 °F 88% 30.06 in 10.0 mi WSW 6.9 mph - N/A   Overcast
3:53 AM 12.9 °F 6.9 °F 12.0 °F 96% 30.09 in 10.0 mi SE 3.5 mph - N/A   Clear
4:53 AM 14.0 °F - 12.0 °F 92% 30.11 in 10.0 mi Calm Calm - N/A   Scattered Clouds
5:53 AM 18.0 °F 8.7 °F 15.1 °F 88% 30.11 in 10.0 mi South 6.9 mph - N/A   Overcast
6:43 AM 19.4 °F 12.8 °F 17.6 °F 93% 29.99 in 1.8 mi SW 4.6 mph - 0.00 in Snow Light Snow
6:53 AM 19.9 °F - 17.1 °F 89% 30.13 in 3.0 mi Calm Calm - 0.00 in Snow Light Snow
7:43 AM 19.4 °F 10.4 °F 17.6 °F 93% 30.01 in 7.0 mi SSW 6.9 mph - 0.00 in Snow Light Snow
7:53 AM 19.9 °F 12.1 °F 18.0 °F 92% 30.15 in 9.0 mi SSW 5.8 mph - 0.00 in   Overcast
8:53 AM 21.9 °F 17.2 °F 19.9 °F 92% 30.17 in 9.0 mi SSW 3.5 mph - 0.00 in Snow Light Snow
9:53 AM 27.0 °F - 19.9 °F 75% 30.16 in 10.0 mi Calm Calm - 0.00 in   Overcast
10:53 AM 28.0 °F - 21.0 °F 75% 30.17 in 10.0 mi Calm Calm - N/A   Mostly Cloudy
11:53 AM 32.0 °F 26.4 °F 21.0 °F 64% 30.18 in 10.0 mi North 5.8 mph - 0.00 in Snow Light Snow
12:53 PM 30.9 °F 23.5 °F 19.9 °F 64% 30.18 in 10.0 mi NNW 8.1 mph - 0.00 in   Mostly Cloudy
1:53 PM 32.0 °F 25.6 °F 19.0 °F 59% 30.17 in 10.0 mi NNW 6.9 mph - N/A   Clear
2:53 PM 32.0 °F - 16.0 °F 52% 30.16 in 10.0 mi Calm Calm - N/A   Clear
3:53 PM 32.0 °F 28.7 °F 17.1 °F 54% 30.17 in 10.0 mi East 3.5 mph - N/A   Clear
4:53 PM 30.9 °F - 18.0 °F 59% 30.17 in 10.0 mi Calm Calm - N/A   Clear
5:53 PM 21.9 °F 14.5 °F 15.1 °F 75% 30.17 in 10.0 mi East 5.8 mph - N/A   Clear
6:53 PM 19.9 °F 8.6 °F 15.1 °F 81% 30.16 in 10.0 mi ESE 10.4 mph - N/A   Clear
7:53 PM 19.0 °F 8.2 °F 14.0 °F 81% 30.16 in 10.0 mi SE 9.2 mph - N/A   Clear
8:53 PM 18.0 °F 6.1 °F 14.0 °F 84% 30.14 in 10.0 mi ESE 10.4 mph - N/A   Clear
9:53 PM 16.0 °F - 12.9 °F 88% 30.14 in 10.0 mi Calm Calm - N/A   Clear
10:53 PM 10.9 °F 4.7 °F 8.1 °F 88% 30.15 in 10.0 mi South 3.5 mph - N/A   Clear
11:53 PM 10.9 °F 1.4 °F 8.1 °F 88% 30.12 in 10.0 mi SSE 5.8 mph - N/A   Clear